Tracking 20040 objects as of 19-Nov-2019
Live streaming from Space Station
objects crossing your sky now

COSMOS 1413 (GLONASS)

Track COSMOS 1413 (GLONASS) now!
COSMOS 1413 (GLONASS) is classified as:


NORAD ID: 13603
Int'l Code: 1982-100A
Perigee: 19,057.6 km
Apogee: 19,094.8 km
Inclination: 64.0 °
Period: 673.3 minutes
Semi major axis: 25447 km
RCS: 0.4302 m2 (medium)
Launch date: October 12, 1982
Source: Commonwealth of Independent States (former USSR) (CIS)
Launch site: TYURATAM MISSILE AND SPACE COMPLEX (TTMTR)
aabbcc
Your satellite tracking list
Your tracking list is empty




NASA's NSSDC Master Catalog

Two Line Element Set (TLE):
1 13603U 82100A   19319.05747597 +.00000092 +00000-0 +00000-0 0  9992
2 13603 064.0019 150.6766 0007299 019.9106 145.0116 02.13866819289718
Source of the keplerian elements: AFSPC